Home > Weather > Bend > Past weeks

Flag for USA Weather for the Past 2 Weeks in Bend, Oregon, USA

Now
53 °F

Mostly cloudy.


Feels Like: 49 °F
Forecast: 49 / 67 °F
Wind: 12 mph from Northwest

Location: Roberts Field Airport

Current Time: May 6, 2016 at 4:17:23 AM

Latest Report: May 6, 2016 at 2:56 AM


Visibility: 10 mi

Pressure: 29.93 "Hg (26.22 "Hg at 1103m altitude)

Humidity: 86%

Dew Point: 49 °F

Location of BendLocation

Historic Weather in Bend — Graph

°F

Bend Temperature Yesterday

Maximum temperature yesterday: 61 °F (at 2:56 PM)
Minimum temperature yesterday: 44 °F (at 5:56 AM)
Average temperature yesterday: 53 °F

High & Low Weather Summary for the Past Weeks

 TemperatureHumidityPressure
High77 °F (May 2, 1:56 PM)96% (May 5, 5:56 AM)30.27 "Hg (May 5, 5:56 AM)
Low24 °F (Apr 26, 5:56 AM)16% (May 2, 1:56 PM)29.56 "Hg (Apr 22, 5:56 AM)
Average51 °F58%29.98 "Hg
* Reported Apr 21 2:56 AM — May 6 2:56 AM, Bend, Weather by CustomWeather, © 2016

Note: Actual official high and low records may vary slightly from our data, if they occured in-between our weather recording intervals... More about our weather records

Advertising

Bend Weather History for the Previous 24 Hours

Scroll right to see more
 ConditionsComfort  
Time TempWeatherWind HumidityBarometerVisibility
2:56 AM
Fri, May 6
53 °FMostly cloudy.12 mph86%29.93 "Hg10 mi
1:56 AM53 °FMostly cloudy.12 mph86%29.94 "Hg10 mi
12:56 AM53 °FPassing clouds.9 mph83%29.94 "Hg10 mi
11:56 PM
Thu, May 5
53 °FOvercast.9 mph89%29.93 "Hg10 mi
10:56 PM54 °FOvercast.8 mph90%29.93 "Hg10 mi
9:56 PM54 °FMostly cloudy.5 mph86%29.94 "Hg10 mi
8:56 PM54 °FMostly cloudy.No wind86%29.94 "Hg10 mi
7:56 PM54 °FLight rain. Overcast.No wind83%29.92 "Hg8 mi
6:56 PM55 °FLight rain. Fog.7 mph87%29.91 "Hg3 mi
5:56 PM56 °FCloudy.6 mph84%29.90 "Hg10 mi
4:56 PM54 °FRain. Fog.9 mph86%29.90 "Hg4 mi
3:59 PM54 °FThundershowers. Fog.5 mph86%29.92 "Hg3 mi
2:56 PM61 °FBroken clouds.9 mph65%29.88 "Hg10 mi
1:56 PM60 °FPartly sunny.3 mph65%29.89 "Hg10 mi
12:56 PM60 °FPassing clouds.7 mph65%29.89 "Hg10 mi
11:56 AM59 °FPartly sunny.3 mph67%29.90 "Hg10 mi
10:56 AM56 °FOvercast.6 mph75%29.91 "Hg10 mi
9:56 AM53 °FMostly cloudy.6 mph86%29.91 "Hg10 mi
8:56 AM52 °FSunny.5 mph86%29.91 "Hg10 mi
7:56 AM49 °FSunny.No wind90%29.92 "Hg7 mi
6:56 AM47 °FFog.No wind93%29.92 "Hg4 mi
5:56 AM44 °FFog.No wind96%29.91 "Hg1 mi
4:56 AM46 °FClear.3 mph93%29.91 "Hg9 mi
Weather by CustomWeather, © 2016

See weather overviewHow to use our weather pages